Location: Ajisawe
(8.4333°N, 4.3833°E)
Time: 12:43:19
(UTC+00:00)

Courier 1B Rocket - Pass Details

Date: 30 April 2021
Orbit: 920 x 1202 km, 28.2° (Epoch: 07 May)

Event Time Altitude Azimuth Distance (km) Brightness Sun altitude
Rises 14:19:39 0° 275° (W) 3,631 8.6 50.4°
Reaches altitude 10° 14:22:55 10° 290° (WNW) 2,650 8.2 49.6°
Maximum altitude 14:27:46 23° 340° (NNW) 1,864 7.2 48.4°
Drops below altitude 10° 14:32:33 10° 31° (NNE) 2,599 7.2 47.2°
Sets 14:35:44 0° 46° (NE) 3,545 7.7 46.5°
